Regional Weather Roundup
Issued by NWS Midland/Odessa, TX

Skip options and go directly to product.
Home | Oldest Version | Previous Version | Current Version | All | Text Only | Save Text | Print | Product List | Glossary Off

Skip product version selection by date and time.   

114
ASUS44 KMAF 110010
RWRMAF
MIDLAND AREA WEATHER ROUNDUP
NATIONAL WEATHER SERVICE MIDLAND TX
600 PM CST WED FEB 10 2016

...IN SOUTHWEST TEXAS AND SOUTHEAST NEW MEXICO...

CITY           SKY/WX    TMP DP  RH WIND       PRES   REMARKS
ALPINE         CLEAR     68  13  12 S9        30.32S
ANDREWS        FAIR      71  17  13 SW12      30.18F
ARTESIA        CLEAR     73  21  14 SW10      30.16S
BIG SPRING     CLEAR     70  25  18 S14       30.19F
CARLSBAD       CLEAR     73  19  13 SW3       30.16S
DRYDEN           N/A     75  21  13 S12       30.20S
FORT STOCKTON  CLEAR     72  24  16 NE5       30.21S
GUAD PASS      CLEAR     64  14  14 W20       30.28F
HOBBS          CLEAR     70   9   9 SW13      30.19F
MARFA          CLEAR     66  12  12 W10       30.30S
MIDLAND AIRPK  CLEAR     73  18  12 SW9       30.19F
MIDLAND INTL   CLEAR     71  19  14 SW12      30.18F
ODESSA         CLEAR     71  17  12 SW10      30.19F
PECOS          CLEAR     73  24  16 E9        30.18S
PRESIDIO       FAIR      73  18  12 CALM      30.21F
SEMINOLE       CLEAR     70  16  12 SW10      30.18F
SNYDER           N/A     73  21  14 SW12      30.15S
WINK           CLEAR     73  22  14 S9        30.17F
$$
...OTHER STATIONS IN TEXAS...

CITY           SKY/WX    TMP DP  RH WIND       PRES   REMARKS
ABILENE        CLEAR     73  24  16 SW10      30.12F
AMARILLO       CLEAR     71  10   9 W8        30.07S
AUSTIN         CLEAR     69  32  25 S9        30.20F
BROWNSVILLE    CLEAR     69  41  36 S12       30.30S
CORPUS CHRISTI CLEAR     69  44  40 SE16      30.26S
DALLAS FTW     CLEAR     71  30  21 S12       30.07F
DEL RIO        CLEAR     76  26  15 SE8       30.20R
EL PASO        CLEAR     69  12  11 W6        30.25R
HOUSTON INT    CLEAR     65  37  35 S7        30.25S
LUBBOCK        CLEAR     72  14  11 SW15      30.11F
SAN ANGELO     CLEAR     75  21  13 SW12      30.17F
SAN ANTONIO    CLEAR     72  29  20 SW6       30.23S
WACO           CLEAR     65  36  34 S10       30.15F
WICHITA FALLS  NOT AVBL
$$
...OTHER LOCATIONS IN NEW MEXICO...

CITY           SKY/WX    TMP DP  RH WIND       PRES   REMARKS
ALAMAGORDO     CLEAR     68  14  12 NW5       30.26S
ALBUQUERQUE    CLEAR     61  16  17 S3        30.29F
CANNON AFB     CLEAR     71   7   8 W13       30.13S
CLOVIS         CLEAR     70  12  11 W12       30.14S
HOLLOMAN AFB   CLEAR     68  15  13 W3        30.24S
ROSWELL        CLEAR     72  20  14 SE8       30.16S
RUIDOSO          N/A     55   9  15 NW9       30.35R
SANTA FE       CLEAR     57  15  19 SW5       30.29F
TRUTH OR CONSE CLEAR     67  15  13 S6        30.25F
TUCUMCARI      CLEAR     73   5   7 SW6       30.08S
$$

USA.gov is the U.S. government's official web portal to all federal, state and local government web resources and services.